N180GS LEIB-LEPA

Flight info

Callsign N180GS
Flight time N/A
Altitude 3000
Route SSJ DCT
Aircraft BE36/L-VGD/C

Departure

Time N/A
Airport Ibiza Airport (LEIB)

Arrival

Time 2026-05-07 05:28
Airport Palma de Mallorca Airport (LEPA)
Time Latitude Longitude Altitude Speed Heading
2026-05-07 05:10 39.11327 1.90824 2992 ft 170 kts 59°
2026-05-07 05:10 39.11949 1.92120 2992 ft 170 kts 59°
2026-05-07 05:10 39.12571 1.93416 2992 ft 170 kts 57°
2026-05-07 05:11 39.13246 1.94664 2992 ft 170 kts 55°
2026-05-07 05:11 39.13939 1.95903 2992 ft 170 kts 54°
2026-05-07 05:11 39.14625 1.97141 2992 ft 170 kts 54°
2026-05-07 05:11 39.15309 1.98383 2992 ft 169 kts 54°
2026-05-07 05:12 39.15991 1.99620 2991 ft 170 kts 55°
2026-05-07 05:12 39.16678 2.00863 2993 ft 171 kts 54°
2026-05-07 05:12 39.17365 2.02114 2992 ft 171 kts 55°
2026-05-07 05:12 39.18055 2.03357 2995 ft 171 kts 54°
2026-05-07 05:13 39.18744 2.04603 2998 ft 171 kts 54°
2026-05-07 05:13 39.19201 2.05432 2998 ft 171 kts 54°
2026-05-07 05:13 39.20111 2.07090 2998 ft 171 kts 55°
2026-05-07 05:13 39.20803 2.08340 2997 ft 171 kts 54°
2026-05-07 05:14 39.21491 2.09590 2995 ft 171 kts 55°
2026-05-07 05:14 39.22182 2.10840 2993 ft 171 kts 54°
2026-05-07 05:14 39.22652 2.11686 2994 ft 172 kts 54°
2026-05-07 05:14 39.23338 2.12921 2993 ft 172 kts 54°
2026-05-07 05:15 39.24034 2.14169 2998 ft 172 kts 54°
2026-05-07 05:15 39.24726 2.15425 2998 ft 171 kts 55°
2026-05-07 05:15 39.25420 2.16669 2998 ft 171 kts 55°
2026-05-07 05:15 39.26113 2.17917 2998 ft 171 kts 54°
2026-05-07 05:16 39.26807 2.19171 3003 ft 171 kts 55°
2026-05-07 05:16 39.27501 2.20419 3002 ft 171 kts 54°
2026-05-07 05:16 39.28195 2.21672 3001 ft 171 kts 55°
2026-05-07 05:16 39.28886 2.22919 3002 ft 170 kts 55°
2026-05-07 05:17 39.29571 2.24161 3001 ft 170 kts 54°
2026-05-07 05:17 39.30256 2.25401 3000 ft 169 kts 54°
2026-05-07 05:17 39.30939 2.26640 3000 ft 169 kts 55°
2026-05-07 05:17 39.31624 2.27881 3003 ft 170 kts 54°
2026-05-07 05:18 39.32316 2.29123 3008 ft 171 kts 54°
2026-05-07 05:18 39.33010 2.30367 3002 ft 171 kts 55°
2026-05-07 05:18 39.33703 2.31617 3001 ft 172 kts 55°
2026-05-07 05:18 39.34398 2.32872 3001 ft 172 kts 54°
2026-05-07 05:19 39.35095 2.34131 3002 ft 173 kts 54°
2026-05-07 05:19 39.35794 2.35395 3003 ft 173 kts 54°
2026-05-07 05:19 39.36493 2.36666 3003 ft 174 kts 54°
2026-05-07 05:19 39.37194 2.37939 3004 ft 174 kts 54°
2026-05-07 05:20 39.37889 2.39197 3002 ft 174 kts 55°
2026-05-07 05:20 39.38593 2.40471 3003 ft 174 kts 54°
2026-05-07 05:20 39.39297 2.41747 3004 ft 174 kts 54°
2026-05-07 05:20 39.39998 2.43022 3004 ft 174 kts 55°
2026-05-07 05:21 39.40700 2.44295 3005 ft 174 kts 54°
2026-05-07 05:21 39.42100 2.46830 3006 ft 173 kts 54°
2026-05-07 05:21 39.42801 2.48101 2953 ft 173 kts 55°
2026-05-07 05:22 39.43485 2.49351 2832 ft 167 kts 55°
2026-05-07 05:22 39.44148 2.50534 2704 ft 162 kts 51°
2026-05-07 05:22 39.44928 2.51567 2575 ft 159 kts 45°
2026-05-07 05:22 39.45691 2.52597 2446 ft 158 kts 53°
2026-05-07 05:23 39.46322 2.53756 2322 ft 157 kts 56°
2026-05-07 05:23 39.46934 2.54888 2317 ft 151 kts 54°
2026-05-07 05:23 39.47526 2.55985 2312 ft 147 kts 58°
2026-05-07 05:23 39.48071 2.57089 2307 ft 144 kts 58°
2026-05-07 05:24 39.48596 2.58157 2312 ft 134 kts 58°
2026-05-07 05:24 39.49082 2.59144 2272 ft 129 kts 58°
2026-05-07 05:24 39.49561 2.60128 2096 ft 127 kts 58°
2026-05-07 05:24 39.50030 2.61082 1914 ft 124 kts 58°
2026-05-07 05:25 39.50490 2.62003 1736 ft 120 kts 58°
2026-05-07 05:25 39.50893 2.62923 1543 ft 115 kts 61°
2026-05-07 05:25 39.51293 2.63787 1358 ft 109 kts 60°
2026-05-07 05:25 39.51699 2.64604 1170 ft 109 kts 58°
2026-05-07 05:26 39.52084 2.65446 1012 ft 109 kts 61°
2026-05-07 05:26 39.52462 2.66298 850 ft 109 kts 59°
2026-05-07 05:26 39.52842 2.67121 742 ft 100 kts 59°
2026-05-07 05:26 39.53175 2.67820 600 ft 87 kts 56°
2026-05-07 05:27 39.53494 2.68470 484 ft 84 kts 57°
2026-05-07 05:27 39.53789 2.69111 398 ft 83 kts 58°
2026-05-07 05:27 39.54096 2.69750 300 ft 83 kts 57°
2026-05-07 05:27 39.54395 2.70386 169 ft 83 kts 59°
2026-05-07 05:28 39.54694 2.71025 53 ft 81 kts 57°
2026-05-07 05:28 39.54961 2.71585 20 ft 63 kts 59°
2026-05-07 05:28 39.55101 2.71891 23 ft 15 kts 84°
2026-05-07 05:28 39.55033 2.71935 21 ft 3 kts 155°
2026-05-07 05:29 39.54998 2.71960 21 ft 12 kts 151°
2026-05-07 05:29 39.54982 2.72079 21 ft 22 kts 62°
2026-05-07 05:29 39.55081 2.72293 22 ft 32 kts 57°
2026-05-07 05:29 39.55175 2.72490 23 ft 24 kts 59°
2026-05-07 05:30 39.55269 2.72688 24 ft 25 kts 58°
2026-05-07 05:30 39.55350 2.72856 25 ft 18 kts 59°
2026-05-07 05:30 39.55411 2.72993 26 ft 18 kts 60°
2026-05-07 05:30 39.55482 2.73142 26 ft 21 kts 60°
2026-05-07 05:31 39.55561 2.73305 27 ft 19 kts 61°
2026-05-07 05:31 39.55613 2.73419 28 ft 16 kts 57°
2026-05-07 05:31 39.55582 2.73532 28 ft 19 kts 148°
2026-05-07 05:31 39.55451 2.73633 28 ft 24 kts 147°
2026-05-07 05:32 39.55318 2.73738 28 ft 21 kts 147°
2026-05-07 05:32 39.55200 2.73833 28 ft 20 kts 149°
2026-05-07 05:32 39.55089 2.73919 27 ft 18 kts 149°
2026-05-07 05:32 39.54984 2.74000 27 ft 18 kts 149°
2026-05-07 05:33 39.54883 2.74082 27 ft 15 kts 148°
2026-05-07 05:33 39.54787 2.74117 27 ft 17 kts 213°
2026-05-07 05:33 39.54713 2.73967 28 ft 22 kts 239°
2026-05-07 05:33 39.54633 2.73798 29 ft 22 kts 238°
2026-05-07 05:34 39.54561 2.73643 30 ft 22 kts 239°
2026-05-07 05:34 39.54477 2.73462 31 ft 25 kts 237°
2026-05-07 05:34 39.54408 2.73322 32 ft 19 kts 236°
2026-05-07 05:34 39.54336 2.73169 33 ft 14 kts 236°
2026-05-07 05:35 39.54268 2.73029 34 ft 21 kts 240°
2026-05-07 05:35 39.54226 2.72938 34 ft 9 kts 239°
2026-05-07 05:35 39.54221 2.72927 34 ft 0 kts 241°
2026-05-07 05:36 39.54216 2.72913 34 ft 6 kts 253°
2026-05-07 05:36 39.54223 2.72860 34 ft 6 kts 310°
2026-05-07 05:36 39.54238 2.72841 34 ft 6 kts 292°
2026-05-07 05:37 39.54222 2.72792 34 ft 4 kts 236°
2026-05-07 05:37 39.54200 2.72750 33 ft 6 kts 231°
2026-05-07 05:37 39.54172 2.72753 33 ft 4 kts 151°
2026-05-07 05:37 39.54150 2.72769 34 ft 0 kts 151°
2026-05-07 05:38 39.54149 2.72770 34 ft 0 kts 150°